Location: Grange Verzio
(44.5000°N, 6.9833°E)
Time: 18:02:59
(UTC+00:00)

Cosmos 2219 Rocket - Pass Details

Date: 26 September 2023
Orbit: 826 x 848 km, 71.0° (Epoch: 08 December)

Event Time Altitude Azimuth Distance (km) Brightness Sun altitude
Rises 18:10:18 0° 192° (SSW) 3,348 5.4 -9.3°
Reaches altitude 10° 18:12:44 10° 188° (S) 2,419 4.6 -9.7°
Maximum altitude 18:18:10 59° 110° (ESE) 948 2.2 -10.7°
Drops below altitude 10° 18:23:39 10° 32° (NNE) 2,443 4.4 -11.7°
Sets 18:26:08 0° 29° (NNE) 3,383 5.1 -12.1°
